Regional Weather Roundup
Issued by NWS Wakefield, VA

Home | Current Version | Previous Version | Graphics & Text | Print | Product List | Glossary On
Versions: 1 2 3 4 5 6 7 8 9 10 11 12 13 14 15 16 17 18 19 20 21 22 23 24 25 26 27
000
ASUS41 KAKQ 210315
RWRAKQ

REGIONAL WEATHER ROUNDUP
NATIONAL WEATHER SERVICE WAKEFIELD VA
1000 PM EST SAT JAN 20 2018

Note: "fair" indicates few or no clouds below 12,000 feet with no
significant weather and/or obstructions to visibility. * = Denotes
station may not report precipitation (e.g., rain,snow,etc.),
thunder or fog.

VAZ042-051-052>054-056-210400-
NORTHERN VIRGINIA

CITY           SKY/WX    TMP DP  RH WIND       PRES   REMARKS
WASH NATIONAL  FAIR      37  31  78 S5        30.09R
DULLES         FAIR      39  30  70 N5        30.08R
FORT BELVOIR   FAIR      34  28  79 CALM        N/A
QUANTICO       NOT AVBL
FREDERICKSBRG* FAIR      35  31  84 CALM      30.09R
STAFFORD*      FAIR      35  31  85 CALM      30.13R
WARRENTON      FAIR      32  25  74 CALM      30.08S
CULPEPER*      FAIR      33  26  75 CALM      30.10R
MANASSAS*      FAIR      28  25  88 CALM      30.10R
LEESBURG*      FAIR      39  32  75 NW5       30.09R
WINCHESTER     FAIR      39  28  65 CALM      30.09R
FRONT ROYAL*   FAIR      46  32  57 SE6       30.07S
LURAY*         FAIR      45  32  61 S9        30.08S
$$

VAZ048-049-060>072-079>083-210400-
CENTRAL AND SOUTH CENTRAL VIRGINIA

CITY           SKY/WX    TMP DP  RH WIND       PRES   REMARKS
RICHMOND       FAIR      47  35  63 SW6       30.10R
CHESTERFIELD*  NOT AVBL
PETERSBURG*    FAIR      46  32  57 SW6       30.12R
HANOVER        FAIR      48  35  60 W3        30.11R
TAPPAHANNOCK*  FAIR      46  35  63 S5        30.10R
QUINTON*       FAIR      42  34  72 CALM      30.10S
CHARLOTTSVILLE FAIR      56  34  43 VRB3      30.09R
GORDONSVILLE*  FAIR      41  32  72 CALM      30.09R
ORANGE*        FAIR      41  30  65 CALM      30.09R
LOUISA*        FAIR      45  33  62 SW5       30.14R
BUMPASS*       FAIR      47  32  56 SW5       30.09S
FARMVILLE*     FAIR      40  38  91 CALM      30.10S
CREWE*         FAIR      43  36  74 CALM      30.11S
FORT PICKETT*  FAIR      45  34  66 W6        30.11S
CHASE CITY*    FAIR      43  35  72 CALM      30.14R
CLARKSVILLE*   FAIR      46  36  66 W5        30.13S
SOUTH HILL*    FAIR      45  36  69 SW6       30.18S
LAWRENCEVILLE* FAIR      44  33  64 CALM      30.12S
EMPORIA*       FAIR      37  32  81 S3        30.15S
$$

VAZ088>098-210400-
SOUTHEAST VIRGINIA

CITY           SKY/WX    TMP DP  RH WIND       PRES   REMARKS
NORFOLK        FAIR      51  33  50 SW8       30.11R
VIRGINIA BEACH FAIR      45  30  55 SW8       30.12R
NORFOLK NAVAL  FAIR      51  32  48 SW8       30.13R
WEST POINT*    FAIR      37  31  81 CALM      30.12S
SALUDA*        FAIR      50  35  57 SW3       30.09S
NEWPORT NEWS   FAIR      48  33  56 W6        30.11S
LANGLEY AFB    FAIR      47  35  61 SW9       30.10S
FORT EUSTIS    FAIR      49  33  54 W3        30.08F
WILLIAMSBURG*  FAIR      50  36  57 CALM      30.11F
HR EXEC AP*    FAIR      45  32  60 SW5       30.14R
FRANKLIN*      FAIR      46  32  56 SW3       30.14S
US460-WAKEFLD  FAIR      43  34  70 SW5       30.12S
$$

VAZ020-022-025-037-045-210400-
WEST CENTRAL AND SOUTHWEST VIRGINIA

CITY           SKY/WX    TMP DP  RH WIND       PRES   REMARKS
STAUNTON*      FAIR      44  33  64 CALM      30.12S
WAYNESBORO*    FAIR      48  36  61 W7        30.11R
HOT SPRINGS VA CLOUDY    42  36  80 W26G37    30.11R
LYNCHBURG      FAIR      50  37  61 SW6       30.12S
DANVILLE       FAIR      40  35  83 SW5       30.16R
SOUTH BOSTON*  FAIR      44  34  67 SW5       30.15R
MARTINSVILLE   FAIR      42  36  80 CALM      30.19S
ROANOKE        FAIR      49  38  65 W6        30.17R
BLACKSBURG     CLOUDY    47  40  77 W3        30.20S
DUBLIN*        MOCLDY    42  37  81 S7        30.19S
MARION*        FAIR      40  33  76 W9        30.22S
HILLSVILLE*    FAIR      42  36  78 NW8       30.17S
RICHLANDS*     CLOUDY    42  33  69 W5        30.21S
WISE*          FAIR      41  32  70 SW8       30.21S
ABINGDON*      FAIR      38  34  87 CALM      30.22F
$$

MDZ021>025-VAZ099-100-210400-
SOUTHERN MARYLAND AND THE DELMARVA PENINSULA

CITY           SKY/WX    TMP DP  RH WIND       PRES   REMARKS
PATUXENT RIVER NOT AVBL
BAY BRIDGE APT FAIR      34  28  80 CALM      30.09R
LEONARDTOWN    FAIR      46  32  57 SW5       30.10R
DOVER          FAIR      39  28  66 SW5       30.07R
GEORGETOWN     FAIR      34  25  69 CALM      30.09R
EASTON         PTCLDY    37  27  65 CALM      30.12R
CAMBRIDGE      CLEAR     32  27  80 SE3       30.09R
SALISBURY      FAIR      32  26  78 CALM      30.09R
OCEAN CITY     FAIR      33  29  85 W3        30.10R
WALLOPS ISLAND FAIR      34  28  79 CALM      30.11R
ACCOMACK*      FAIR      45  33  62 SW5       30.11R
$$

NCZ012>017-030>032-210400-
NORTH CENTRAL AND EASTERN NORTH CAROLINA

CITY           SKY/WX    TMP DP  RH WIND       PRES   REMARKS
ROANOKE RAPIDS FAIR      43  32  65 SW5       30.14S
RALEIGH        FAIR      42  33  70 SW7       30.19R
ELIZABETH CITY FAIR      43  33  68 SW6       30.15R
AHOSKIE*       FAIR      40  31  68 CALM      30.15S
EDENTON*       FAIR      50  28  42 W7        30.17R
CURRITUCK*     FAIR      44  29  56 SW3       30.15R
KILL DEVIL HLS FAIR      42  30  62 CALM      30.14S
MANTEO         FAIR      39  32  76 SW3       30.17R
CAPE HATTERAS  FAIR      51  41  68 W10G20    30.19R
TARBORO*       NOT AVBL
GOLDSBORO      FAIR      45  23  41 SW5       30.19R
WASHINGTON     FAIR      45  24  43 SW6       30.19R
GREENVILLE     FAIR      46  27  46 SW9       30.19S
NEW BERN       FAIR      45  28  51 SW7       30.22R
WILMINGTON     FAIR      41  31  67 CALM      30.22F
$$

VAZ048-210400-
ELSEWHERE

CITY           SKY/WX    TMP DP  RH WIND       PRES   REMARKS
HARRISBURG PA  FAIR      31  28  89 CALM      30.07R
BALTIMORE      FAIR      38  30  73 W5        30.08R
ANNAPOLIS      FAIR      35  31  85 CALM      30.09R
ANDREWS AFB    FAIR      33  27  77 SE3       30.08R
PHILADELPHIA   MOCLDY    39  29  67 W5        30.07R
HENDERSON NC   FAIR      38  31  76 SW5       30.15S
GREENSBORO     FAIR      42  34  73 SW8       30.17S
ROCKY MOUNT    NOT AVBL
$$

VAZ100-210400-
MARINE

STATION/POSITION TIME  TEMP    WIND        PRES    WAVE   SWELL
                       AIR SEA DIR/SP/G            HT/PER HT/PER
                 (UTC) (F)     (DEG/KT/KT) (MB)    (FT/S) (FT/S)
BRANDYWINE LGT   0242   46     240/ 14/ 15 1018.7R
CAPE MAY NJ      0248   38 34  240/  6/  7 1018.0R
LEWES DE         0242   45 34  230/  6/  8 1018.3R
15NM E FENWICK I 0250   42 39  200/ 10/ 12 1019.3R   3/ 6   2/ 6
OCEAN-CITY-INLET 0248   38 37  250/  4/  4 1019.5R
WACHAPREAGUE VA  0248   43 37  260/  2/  3 1019.4R
THOMAS POINT MD  0300   40 33  200/  4/  4   N/A
GOOSES REEF MD   0300   38 33  200/  4/  6 1019.2    0
COVE POINT MD    0248   45     220/  1/  5 1019.3R
SOLOMONS ISLAND  0242   36 34  350/  1/  2 1018.4R
BISHOPS HEAD MD  0248   39 35  180/  4/  5 1019.1R
PINEY POINT MD   0248          130/  3/  4   N/A
POTOMAC MD       0300   43 34  330/  4/  4 1018.3    0
CAMBRIDGE MD     0248   37 33              1019.4R
LEWISETTA VA     0248   50 34  240/  8/  9 1018.7R
RAPPAHANNOCK LGT 0248          210/  8/  9 1019.8R
STINGRAY PT      0300   45 34  300/  4/  4 1022.0    0
YORK RVR RNG VA  0248   45     270/ 12/ 14 1019.9R
YORKTOWN VA      0248   52 36  250/ 10/ 13 1019.0R
DOMINION TERM VA 0248   44     250/  5/  6 1019.9S
KIPTOPEKE VA     0248      35  170/  2/  3   N/A
CAPE HENRY VA    0248   52     240/  8/ 13   N/A
WILLOUBY STN VA  0242          240/ 10/ 10 1019.5R
S CRANEY ISL VA  0248   52     240/  7/ 13 1019.4S
CAPE HENRY BUOY  0300      38                N/A     2/11
1ST LANDING BUOY 0300   44 35  270/  8/  8 1019.7    1/ 3
CAPE CHARLES BUO 0251      39                N/A     2/12
64NM E OF VA BCH 0250   53 53  250/ 12/ 16 1020.6R   4/ 6   2/11
DUCK PIER NC     0248   46 40  230/  9/ 11 1020.4R
44100 DUCK FRF   0245      41                N/A     2/12   2/12
44056 DUCK FRF   0300      40                N/A     2/11   2/11
OREGON INLET NC  0242   42 41  210/  8/  9 1021.4R
HATTERAS NC      0248   51 49  250/ 11/ 15 1022.0R
DIAMOND SHLS NC  0300   62     260/ 21/ 27 1022.2
CAPE LOOKOUT NC  0300          250/ 13/ 16 1023.2R
$$




USA.gov is the U.S. government's official web portal to all federal, state and local government web resources and services.